Bemidji, MN

7:45 PM CST on February 24, 2017 (GMT -0600)
Bemidji-Beltrami County

Weather History for KBJI - December, 2012

Change the Weather History Date:

Sunday, December 16, 2012

  Actual Average Record
Temperature  
Mean Temperature 16 °F -  
Max Temperature 19 °F 18 °F 39 °F (1959)
Min Temperature 12 °F 0 °F -36 °F (1963)
Degree Days  
Heating Degree Days 50    
Moisture  
Dew Point 16 °F    
Average Humidity 94    
Maximum Humidity 96    
Minimum Humidity 92    
Precipitation  
Precipitation 0.00 in - - ()
Sea Level Pressure  
Sea Level Pressure 29.73 in    
Wind  
Wind Speed 9 mph (NW)    
Max Wind Speed 13 mph    
Max Gust Speed -    
Visibility 8 miles    
Events Snow    
Averages and records for this station are not official NWS values.
T = Trace of Precipitation, MM = Missing Value Source: NWS Daily Summary

Daily Weather History Graph

Daily Weather History Graph

Search for Another Location

Airport or City:

Trip Planner

Search our weather history database for the weather conditions in past years. The results will help you decide how hot, cold, wet, or windy it might be!

Date:

Astronomy

Dec. 16, 2012 Rise Set
Actual Time 8:01 AM CST 4:29 PM CST
Civil Twilight 7:26 AM CST 5:05 PM CST
Nautical Twilight 6:46 AM CST 5:44 PM CST
Astronomical Twilight 6:09 AM CST 6:21 PM CST
Moon 10:23 AM CST (12/16) 8:59 PM CST (12/16)
Length of Visible Light 9h 39m
Length of Day
8h 27m
Waxing Crescent, 16% of the Moon is Illuminated
Dec 16
Waxing Crescent
Dec 19
First Quarter
Dec 28
Full
Jan 4
Last Quarter
Jan 11
New

Hourly Weather History & Observations

Time (CST) Temp. Windchill Dew Point Humidity Pressure Visibility Wind Dir Wind Speed Gust Speed Precip Events Conditions
12:15 AM 17.4 °F 4.1 °F 16.5 °F 96% 29.63 in 1.5 mi WNW 12.7 mph - N/A   Overcast
12:35 AM 17.1 °F 4.3 °F 16.2 °F 96% 29.63 in 2.0 mi WNW 11.5 mph - N/A   Overcast
12:55 AM 16.9 °F 3.4 °F 15.8 °F 96% 29.63 in 2.0 mi WNW 12.7 mph - N/A   Overcast
1:15 AM 16.2 °F 2.5 °F 15.1 °F 95% 29.64 in 1.2 mi WNW 12.7 mph - N/A   Overcast
1:35 AM 15.3 °F 2.0 °F 14.0 °F 95% 29.65 in 4.0 mi WNW 11.5 mph - N/A   Overcast
2:15 AM 13.8 °F -0.5 °F 12.7 °F 95% 29.67 in 1.2 mi WNW 12.7 mph - N/A Snow Light Snow
2:35 AM 13.6 °F 1.6 °F 12.2 °F 94% 29.67 in 3.0 mi WNW 9.2 mph - N/A   Overcast
2:55 AM 13.1 °F 0.1 °F 11.7 °F 94% 29.67 in 4.0 mi WNW 10.4 mph - N/A   Overcast
3:15 AM 12.9 °F -0.9 °F 11.3 °F 93% 29.68 in 5.0 mi WNW 11.5 mph - N/A Snow Light Snow
3:35 AM 12.7 °F -1.1 °F 10.9 °F 92% 29.68 in 5.0 mi WNW 11.5 mph - N/A Snow Light Snow
3:55 AM 12.9 °F -0.2 °F 10.9 °F 92% 29.68 in 5.0 mi NW 10.4 mph - N/A Snow Light Snow
4:15 AM 12.9 °F 0.7 °F 10.9 °F 92% 29.68 in 5.0 mi NW 9.2 mph - N/A Snow Light Snow
4:35 AM 13.1 °F 0.9 °F 11.1 °F 92% 29.68 in 5.0 mi NW 9.2 mph - N/A Snow Light Snow
4:55 AM 13.1 °F -0.7 °F 11.1 °F 92% 29.69 in 5.0 mi NW 11.5 mph - N/A   Overcast
5:15 AM 12.9 °F -0.2 °F 11.1 °F 93% 29.70 in 7.0 mi NW 10.4 mph - N/A Snow Light Snow
5:35 AM 13.1 °F 0.9 °F 11.3 °F 93% 29.70 in 7.0 mi NW 9.2 mph - N/A Snow Light Snow
6:15 AM 14.0 °F 2.0 °F 12.6 °F 94% 29.72 in 7.0 mi NW 9.2 mph - N/A   Overcast
6:35 AM 14.4 °F 3.3 °F 12.9 °F 94% 29.72 in 7.0 mi NW 8.1 mph - N/A   Overcast
6:55 AM 14.7 °F 2.1 °F 13.3 °F 94% 29.73 in 7.0 mi NW 10.4 mph - N/A   Overcast
7:15 AM 15.1 °F 3.3 °F 13.6 °F 94% 29.72 in 10.0 mi WNW 9.2 mph - N/A   Overcast
7:35 AM 15.6 °F 3.2 °F 14.0 °F 93% 29.72 in 7.0 mi NW 10.4 mph - N/A   Overcast
8:15 AM 16.0 °F 3.6 °F 14.5 °F 94% 29.73 in 7.0 mi NW 10.4 mph - N/A   Overcast
8:55 AM 16.3 °F 3.4 °F 14.7 °F 93% 29.73 in 7.0 mi NW 11.5 mph - N/A   Overcast
9:15 AM 16.5 °F 4.3 °F 14.9 °F 93% 29.73 in 10.0 mi NNW 10.4 mph - N/A   Overcast
9:35 AM 16.7 °F 4.5 °F 14.9 °F 93% 29.74 in 10.0 mi NW 10.4 mph - N/A   Overcast
9:55 AM 16.7 °F 4.5 °F 15.1 °F 93% 29.74 in 10.0 mi NNW 10.4 mph - N/A   Overcast
10:15 AM 17.1 °F 4.3 °F 15.4 °F 93% 29.75 in 10.0 mi NW 11.5 mph - N/A   Overcast
10:35 AM 17.4 °F 6.2 °F 15.6 °F 93% 29.75 in 7.0 mi NW 9.2 mph - N/A   Overcast
10:55 AM 17.8 °F 6.6 °F 16.2 °F 93% 29.75 in 10.0 mi NNW 9.2 mph - N/A   Overcast
11:15 AM 18.3 °F 8.2 °F 16.5 °F 93% 29.75 in 10.0 mi NNW 8.1 mph - N/A   Overcast
11:35 AM 18.5 °F 7.5 °F 16.9 °F 93% 29.74 in 10.0 mi NNW 9.2 mph - N/A   Overcast
11:55 AM 18.5 °F 7.5 °F 17.2 °F 95% 29.74 in 10.0 mi NW 9.2 mph - N/A   Overcast
12:15 PM 19.0 °F 8.2 °F 17.4 °F 93% 29.74 in 10.0 mi NW 9.2 mph - N/A   Overcast
12:35 PM 19.2 °F 9.3 °F 17.6 °F 93% 29.73 in 10.0 mi NW 8.1 mph - N/A   Overcast
12:55 PM 19.4 °F 10.4 °F 18.0 °F 94% 29.73 in 10.0 mi NNW 6.9 mph - N/A   Overcast
1:15 PM 19.6 °F 10.6 °F 18.3 °F 95% 29.73 in 10.0 mi NW 6.9 mph - N/A   Overcast
1:35 PM 19.9 °F 11.1 °F 18.5 °F 94% 29.73 in 10.0 mi NNW 6.9 mph - N/A   Overcast
1:55 PM 19.9 °F 11.1 °F 18.5 °F 94% 29.73 in 10.0 mi NNW 6.9 mph - N/A   Overcast
2:15 PM 19.8 °F 10.8 °F 18.5 °F 95% 29.73 in 10.0 mi NNW 6.9 mph - N/A   Overcast
2:35 PM 19.8 °F 11.9 °F 18.3 °F 94% 29.73 in 10.0 mi NNW 5.8 mph - N/A   Overcast
2:55 PM 19.8 °F 10.8 °F 18.3 °F 94% 29.73 in 10.0 mi North 6.9 mph - N/A   Overcast
3:15 PM 19.9 °F 12.1 °F 18.5 °F 94% 29.73 in 10.0 mi NNW 5.8 mph - N/A   Overcast
3:35 PM 19.9 °F 10.1 °F 18.7 °F 95% 29.74 in 10.0 mi NW 8.1 mph - N/A   Overcast
3:55 PM 19.8 °F 9.1 °F 18.5 °F 95% 29.74 in 10.0 mi NW 9.2 mph - N/A   Overcast
4:15 PM 19.8 °F 9.9 °F 18.5 °F 95% 29.74 in 10.0 mi NW 8.1 mph - N/A   Overcast
4:35 PM 19.9 °F 11.1 °F 18.5 °F 94% 29.75 in 10.0 mi NNW 6.9 mph - N/A   Overcast
4:55 PM 19.9 °F 13.4 °F 18.5 °F 94% 29.75 in 10.0 mi NNW 4.6 mph - N/A   Overcast
5:15 PM 19.9 °F 11.1 °F 18.5 °F 94% 29.75 in 10.0 mi NW 6.9 mph - N/A   Overcast
5:35 PM 19.8 °F 11.9 °F 18.3 °F 94% 29.76 in 10.0 mi NNW 5.8 mph - N/A   Overcast
5:55 PM 19.9 °F 14.9 °F 18.5 °F 94% 29.76 in 10.0 mi NW 3.5 mph - N/A   Overcast
6:15 PM 19.9 °F 13.4 °F 18.5 °F 94% 29.77 in 10.0 mi NNW 4.6 mph - N/A   Overcast
6:35 PM 19.9 °F 13.4 °F 18.5 °F 94% 29.77 in 10.0 mi NNW 4.6 mph - N/A   Overcast
6:55 PM 19.8 °F 13.2 °F 18.5 °F 95% 29.77 in 10.0 mi North 4.6 mph - N/A   Overcast
7:15 PM 19.8 °F 13.2 °F 18.5 °F 95% 29.77 in 10.0 mi North 4.6 mph - N/A   Overcast
7:35 PM 19.8 °F 14.7 °F 18.5 °F 95% 29.77 in 10.0 mi NNW 3.5 mph - N/A   Overcast
7:55 PM 19.9 °F 13.4 °F 18.5 °F 94% 29.77 in 10.0 mi NW 4.6 mph - N/A   Overcast
8:35 PM 19.6 °F 9.7 °F 18.5 °F 96% 29.77 in 10.0 mi NW 8.1 mph - N/A   Overcast
8:55 PM 19.2 °F 11.3 °F 18.3 °F 96% 29.78 in 10.0 mi WNW 5.8 mph - N/A   Overcast
9:15 PM 19.2 °F 10.2 °F 18.1 °F 96% 29.77 in 7.0 mi NW 6.9 mph - N/A   Overcast
9:35 PM 19.0 °F 13.9 °F 18.0 °F 96% 29.77 in 7.0 mi NNW 3.5 mph - N/A   Overcast
9:55 PM 19.2 °F 14.1 °F 18.1 °F 96% 29.76 in 7.0 mi NNW 3.5 mph - N/A   Overcast
10:15 PM 19.2 °F 11.3 °F 18.1 °F 96% 29.76 in 5.0 mi WNW 5.8 mph - N/A   Overcast
10:35 PM 19.0 °F 10.0 °F 18.0 °F 96% 29.76 in 3.0 mi WNW 6.9 mph - N/A   Overcast
10:55 PM 18.7 °F - 17.6 °F 96% 29.76 in 4.0 mi Calm Calm - N/A   Overcast
11:15 PM 18.5 °F 13.3 °F 17.6 °F 96% 29.76 in 3.0 mi NW 3.5 mph - N/A   Overcast
11:35 PM 18.7 °F 9.5 °F 17.6 °F 96% 29.76 in 5.0 mi WNW 6.9 mph - N/A   Overcast
11:55 PM 18.3 °F 11.5 °F 17.1 °F 95% 29.76 in 7.0 mi NW 4.6 mph - N/A   Overcast